This demonstration page uses our WeatherBlox Daily Observations layout. Learn more.

Left ArrowRight Arrow

Hourly Observations for July 23, 2018

Temp ( °F °C ) Dew Point ( °F °C ) Humidity (%) Winds ( mph kmh ) Pressure ( in mb ) Visibility ( mi km ) Precip ( " mm )
12:22 am 00:22 Cloudy 76 24.4 68 20 77 77 VRB 7 11 29.88 1012 10 16 0.00 0.00
12:29 am 00:29 Cloudy with Thunderstorms 75 23.9 68 20 79 79 SSE 7 11 29.88 1012 10 16 0.00 0.03
12:45 am 00:45 Mostly Cloudy 75 23.9 68 20 79 79 SE 8 13 29.88 1012 10 16 0.00 0.03
12:59 am 00:59 Mostly Cloudy 74 23.3 69 20.6 85 85 SSE 8 13 29.88 1012 10 16 0.00 0.03
1:59 am 01:59 Cloudy with Thunderstorms 74 23.3 69 20.6 85 85 SSE 8 13 29.88 1012 8 13 0.01 0.25
2:17 am 02:17 Cloudy with Light Rain 74 23.3 69 20.6 85 85 SE 8 13 29.88 1012 10 16 0.01 0.25
2:28 am 02:28 Cloudy with Thunderstorms 73 22.8 70 21.1 90 90 SSE 5 7 29.88 1012 10 16 0.01 0.25
2:55 am 02:55 Cloudy with Light Rain 73 23 70 21 89 89 SE 8 13 29.88 1012 10 16 0.03 0.76
2:59 am 02:59 Cloudy with Light Rain 73 22.8 70 21.1 90 90 SSE 7 11 29.87 1012 10 16 0.04 1.02
3:12 am 03:12 Cloudy with Thunderstorms 73 22.8 70 21.1 90 90 SSE 7 11 29.88 1012 9 14 0.00 0.03
3:31 am 03:31 Cloudy 73 22.8 69 20.6 87 87 SSE 10 17 29.88 1012 10 16 0.00 0.03
3:59 am 03:59 Cloudy with Light Rain 73 22.8 69 20.6 87 87 SE 8 13 29.87 1011 10 16 0.00 0.03
4:59 am 04:59 Cloudy with Light Rain 74 23.3 70 21.1 88 88 SSE 8 13 29.90 1013 10 16 0.01 0.25
5:59 am 05:59 Cloudy with Light Rain 74 23.3 71 21.7 91 91 SSE 8 13 29.93 1013 7 11 0.03 0.76
6:59 am 06:59 Cloudy with Light Rain 74 23.3 71 21.7 91 91 ESE 7 11 29.92 1013 3 5 0.06 1.52
7:59 am 07:59 Cloudy with Light Rain 74 23.3 71 21.7 91 91 ESE 6 9 29.93 1014 4 6 0.06 1.52
8:59 am 08:59 Mostly Cloudy 75 23.9 71 21.7 88 88 SE 7 11 29.94 1014 10 16 0.01 0.25
9:59 am 09:59 Mostly Cloudy 76 24.4 72 22.2 88 88 SE 9 15 29.96 1015 10 16 0.00 0.03
10:59 am 10:59 Mostly Cloudy 79 26.1 71 21.7 77 77 SSE 13 20 29.96 1015 10 16 0.00 0.00
11:59 am 11:59 Mostly Cloudy 80 26.7 71 21.7 74 74 SSE 14 22 29.97 1015 10 16 0.00 0.00
12:59 pm 12:59 Cloudy 83 28.3 72 22.2 70 70 SSE 12 19 29.97 1015 10 16 0.00 0.00
1:59 pm 13:59 Cloudy 82 27.8 74 23.3 77 77 SSE 12 19 29.97 1015 9 14 0.00 0.03
2:59 pm 14:59 Mostly Cloudy 84 28.9 71 21.7 65 65 SSE 13 20 29.97 1015 10 16 0.00 0.00
3:59 pm 15:59 Cloudy 83 28.3 72 22.2 70 70 SSE 16 26 29.96 1015 10 16 0.00 0.00
4:59 pm 16:59 Cloudy 83 28.3 72 22.2 70 70 SE 13 20 29.96 1015 10 16 0.00 0.00
5:21 pm 17:21 Cloudy 82 27.8 72 22.2 72 72 SE 15 24 29.97 1015 9 14 0.00 0.00
5:59 pm 17:59 Mostly Cloudy 82 27.8 73 22.8 74 74 SSE 12 19 29.95 1014 9 14 0.00 0.00
6:59 pm 18:59 Mostly Cloudy 82 27.8 73 22.8 74 74 S 13 20 29.98 1015 10 16 0.00 0.00
7:59 pm 19:59 Cloudy with Light Rain 80 26.7 73 22.8 79 79 SE 7 11 30.00 1016 10 16 0.00 0.03
8:59 pm 20:59 Cloudy 80 26.7 73 22.8 79 79 SE 10 17 30.01 1016 10 16 0.00 0.03
9:17 pm 21:17 Cloudy with Thunderstorms 80 26.7 73 22.8 79 79 SE 12 19 30.03 1017 9 14 0.00 0.00
9:59 pm 21:59 Cloudy with Thunderstorms 77 25 74 23.3 90 90 SE 7 11 30.05 1018 9 14 0.17 4.32
10:25 pm 22:25 Cloudy 77 25 74 23.3 90 90 SSE 9 15 30.06 1018 9 14 0.00 0.00
10:59 pm 22:59 Cloudy 75 23.9 73 22.8 94 94 SE 6 9 30.05 1018 10 16 0.03 0.76
11:59 pm 23:59 Cloudy with Light Rain 75 23.9 73 22.8 94 94 SSE 6 9 30.06 1018 6 10 0.02 0.51

Powered by AerisWeather